< < Back
Terminal Aerodrome Forecast


Current Version              Previous Versions:   1  2  3  4  5  6  7  8  9  

Terminal Aerodrome Forecast

328
FTUS42 KJAX 310000 AAA
TAFJAX
TAF AMD
KJAX 310009Z 3100/3124 05005KT P6SM VCSH BKN018 OVC040
      TEMPO 3101/3105 SCT018 OVC040
     FM310500 35006KT P6SM SCT020 BKN060
     FM311500 33008KT P6SM FEW040=



Latest METAR

108
SAUS80 KWBC 311700 CCA
MTRJAX
METAR KJAX 311656Z 34007KT 10SM SCT041 21/11 A2985 RMK AO2 SLP108
T02110111


USA.gov is the U.S. government's official web portal to all federal, state and local government web resources and services.